GFSNE_prec_kuchsnow_144.txt.gz
Snowfall_Accumulation
0.0 0.0 0.0 0.0 0.0 0.0 0.0 0.0 0.0 0.0 0.0 0.0 0.0 0.0 0.0 0.0 0.0 0.0 0.0 0.0 0.0 0.0 0.0 0.0 0.0 0.0 0.0 0.0 0.0 0.0 0.0 0.0 0.0 0.0 0.0 0.0 0.0 0.0
0.0 0.0 0.0 0.0 0.0 0.0 0.0 0.0 0.0 0.0 0.0 0.0 0.1 0.0 0.0 0.0 0.0 0.0 0.0 0.0 0.0 0.0 0.0 0.0 0.0 0.0 0.0 0.0 0.0 0.0 0.0 0.0 0.0 0.0 0.0 0.0 0.0 0.0
0.0 0.0 0.0 0.0 0.0 0.0 0.0 0.1 0.1 0.0 0.0 1.3 0.7 0.0 0.0 0.0 0.0 0.0 0.0 0.0 0.0 0.0 0.0 0.0 0.0 0.0 0.0 0.0 0.0 0.0 0.0 0.0 0.0 0.0 0.0 0.0 0.0 0.0
0.0 0.0 0.0 0.0 0.0 0.5 0.0 0.2 0.1 1.1 0.9 0.4 0.0 0.0 0.0 0.0 0.0 0.0 0.0 0.0 0.0 0.0 0.0 0.0 0.0 0.0 0.0 0.0 0.0 0.0 0.0 0.0 0.0 0.0 0.0 0.0 0.0 0.0
0.0 0.0 0.0 0.0 0.0 0.4 0.2 0.1 0.6 0.1 0.1 0.2 0.0 0.0 0.0 0.0 0.0 0.0 0.0 0.0 0.0 0.0 0.0 0.0 0.0 0.0 0.0 0.0 0.0 0.0 0.0 0.0 0.0 0.0 0.0 0.0 0.0 0.0
0.0 0.0 0.4 1.0 0.0 0.5 0.6 0.3 0.1 0.1 0.1 0.1 0.0 1.1 0.2 0.1 0.2 0.1 0.0 0.0 0.0 0.0 0.0 0.0 0.0 0.0 0.0 0.0 0.0 0.0 0.0 0.0 0.0 0.0 0.0 0.0 0.0 0.0
1.0 1.1 1.0 0.5 0.0 0.0 0.0 0.0 0.1 0.1 1.3 3.4 2.3 1.3 1.4 0.0 0.0 0.0 0.0 0.0 0.1 0.0 0.0 0.0 0.0 0.0 0.0 0.0 0.0 0.0 0.0 0.0 0.0 0.0 0.0 0.0 0.0 0.0
2.1 1.2 1.5 0.9 0.2 0.0 0.0 0.0 0.0 0.8 3.0 4.4 4.6 0.8 0.0 0.0 0.0 0.1 1.2 1.4 1.8 0.0 0.1 0.1 0.0 0.0 0.0 0.0 0.0 0.0 0.0 0.0 0.0 0.0 0.0 0.0 0.0 0.0
1.5 1.2 0.4 0.2 0.2 0.0 0.0 0.0 0.3 0.3 0.3 0.7 0.3 0.1 0.2 0.0 2.0 2.8 1.6 3.2 2.3 0.0 0.1 0.4 0.0 0.0 0.0 0.0 0.0 0.0 0.0 0.0 0.0 0.0 0.0 0.0 0.0 0.0
0.0 0.1 0.0 0.0 0.0 0.1 0.2 1.6 0.4 0.2 0.0 0.0 0.0 0.1 0.6 0.2 0.5 1.3 2.8 1.8 0.3 0.0 0.1 2.2 0.0 0.1 0.0 0.0 0.0 0.0 0.0 0.0 0.0 0.0 0.0 0.0 0.0 0.0
0.0 0.0 0.1 0.0 0.0 0.0 1.3 1.5 0.2 0.0 0.0 0.0 0.2 0.0 0.0 0.0 0.0 2.1 2.8 3.8 2.4 0.2 0.0 0.5 0.2 0.2 0.1 0.0 0.0 0.0 0.0 0.0 0.0 0.0 0.0 0.0 0.0 0.0
0.0 0.0 0.0 0.0 0.0 0.3 0.2 0.1 0.5 0.0 1.4 0.6 0.0 0.0 0.0 0.0 0.0 0.2 5.2 13.7 6.4 4.8 0.0 5.4 1.9 1.3 6.3 1.5 1.5 1.0 0.0 0.0 0.0 0.0 0.0 0.0 0.0 0.1
0.5 0.0 0.0 0.1 0.5 0.1 0.0 0.0 0.1 0.2 0.1 0.1 0.0 0.0 0.0 0.0 0.1 0.3 2.0 10.3 15.7 9.9 0.1 9.8 12.6 1.4 9.7 5.2 3.5 3.3 2.2 0.1 0.2 0.0 0.0 0.1 0.1 0.2
0.1 0.0 0.3 0.6 0.0 0.0 0.0 0.1 0.2 0.1 0.0 0.1 0.2 0.2 0.2 0.3 0.2 0.2 0.3 1.9 3.8 9.8 3.0 4.7 22.3 10.6 15.3 10.3 5.1 5.8 2.8 3.1 2.4 1.4 0.6 0.4 0.3 0.3
0.0 0.5 0.4 0.0 0.0 0.0 0.0 0.0 0.0 0.0 0.9 2.3 1.4 0.6 0.7 1.3 2.0 2.8 4.7 4.9 6.0 7.2 8.2 7.4 12.5 11.9 14.2 13.8 9.8 6.0 7.9 6.2 4.2 6.2 3.8 2.0 2.1 1.2
0.9 0.6 0.0 0.0 0.0 0.0 0.0 0.0 0.0 0.3 2.5 4.8 4.0 2.7 3.5 5.2 6.2 7.4 11.8 10.3 11.9 9.7 7.7 7.0 8.8 10.6 11.7 6.2 10.4 8.9 6.6 12.8 9.0 8.0 7.5 3.4 1.3 0.6
0.3 0.0 0.0 0.0 0.0 0.0 0.0 0.0 0.0 0.3 2.6 2.7 4.3 4.5 4.5 7.2 8.2 9.6 13.5 13.2 13.4 9.8 7.8 5.6 4.6 4.5 4.8 6.7 8.7 6.8 8.9 8.4 8.9 12.0 9.7 5.9 4.5 1.2
0.0 0.0 0.0 0.1 0.2 0.1 0.5 0.8 0.9 1.3 3.5 5.8 6.6 7.2 10.0 11.7 14.3 15.4 15.2 15.1 14.4 10.2 9.4 5.6 5.1 5.0 4.0 3.2 5.2 10.4 8.0 8.9 9.8 10.5 9.3 6.8 6.0 3.0
0.0 0.2 0.2 0.4 0.5 0.7 1.3 2.8 4.0 3.8 6.9 9.5 10.9 11.5 13.4 15.4 16.2 15.8 13.7 12.0 10.2 8.3 5.5 3.9 6.1 9.2 10.5 4.6 3.5 4.1 13.2 10.2 6.8 7.2 6.6 4.5 5.7 3.8
0.2 1.5 0.6 0.7 1.3 2.6 3.6 6.1 8.1 8.0 7.4 9.6 11.9 15.2 17.5 21.1 19.6 16.9 12.9 11.3 10.1 6.9 5.5 3.4 3.0 7.5 15.8 14.2 11.9 9.2 5.2 10.2 8.7 8.0 5.4 3.5 2.9 0.0
0.4 1.8 1.9 1.4 2.9 3.8 4.4 7.4 9.4 13.1 15.8 17.6 15.9 18.6 18.6 21.6 16.7 10.2 8.7 4.5 6.2 7.8 7.6 3.6 3.1 2.3 4.2 4.2 6.1 4.5 6.6 3.6 2.4 10.5 8.2 7.0 4.1 2.6
0.9 1.5 1.7 2.6 3.0 4.4 6.9 10.2 14.7 16.0 18.4 15.7 18.7 19.4 17.2 15.5 13.6 9.5 7.1 8.7 6.1 5.9 6.0 4.7 4.1 4.0 2.8 5.4 5.7 4.1 4.9 4.0 1.7 1.2 0.7 3.7 11.6 17.0
1.8 1.3 2.0 3.2 3.4 5.2 8.1 14.0 17.1 18.5 18.3 20.3 18.7 16.6 14.2 12.2 6.0 6.6 7.0 6.8 7.9 9.3 7.2 7.1 5.3 3.1 2.3 4.2 4.1 4.1 2.6 3.1 2.0 2.2 4.7 0.6 0.8 1.5

GFSNE_prec_kuchsnow_147.txt.gz
Snowfall_Accumulation
0.0 0.0 0.0 0.0 0.0 0.0 0.0 0.0 0.0 0.0 0.0 0.0 0.0 0.0 0.0 0.0 0.0 0.0 0.0 0.0 0.0 0.0 0.0 0.0 0.0 0.0 0.0 0.0 0.0 0.0 0.0 0.0 0.0 0.0 0.0 0.0 0.0 0.0
0.0 0.0 0.0 0.0 0.0 0.0 0.0 0.0 0.0 0.0 0.0 0.0 0.1 0.0 0.0 0.0 0.0 0.0 0.0 0.0 0.0 0.0 0.0 0.0 0.0 0.0 0.0 0.0 0.0 0.0 0.0 0.0 0.0 0.0 0.0 0.0 0.0 0.0
0.0 0.0 0.0 0.0 0.0 0.0 0.0 0.1 0.1 0.0 0.0 1.3 0.7 0.0 0.0 0.0 0.0 0.0 0.0 0.0 0.0 0.0 0.0 0.0 0.0 0.0 0.0 0.0 0.0 0.0 0.0 0.0 0.0 0.0 0.0 0.0 0.0 0.0
0.0 0.0 0.0 0.0 0.0 0.5 0.0 0.2 0.1 1.1 0.9 0.4 0.0 0.0 0.0 0.0 0.0 0.0 0.0 0.0 0.0 0.0 0.0 0.0 0.0 0.0 0.0 0.0 0.0 0.0 0.0 0.0 0.0 0.0 0.0 0.0 0.0 0.0
0.0 0.0 0.0 0.0 0.0 0.4 0.2 0.1 0.6 0.1 0.1 0.2 0.0 0.0 0.0 0.0 0.0 0.0 0.0 0.0 0.0 0.0 0.0 0.0 0.0 0.0 0.0 0.0 0.0 0.0 0.0 0.0 0.0 0.0 0.0 0.0 0.0 0.0
0.0 0.0 0.4 1.0 0.0 0.5 0.6 0.3 0.1 0.1 0.1 0.1 0.0 1.1 0.2 0.1 0.2 0.1 0.0 0.0 0.0 0.0 0.0 0.0 0.0 0.0 0.0 0.0 0.0 0.0 0.0 0.0 0.0 0.0 0.0 0.0 0.0 0.0
1.0 1.1 1.0 0.5 0.0 0.0 0.0 0.0 0.1 0.1 1.3 3.4 2.3 1.3 1.4 0.0 0.0 0.0 0.0 0.0 0.1 0.0 0.0 0.0 0.0 0.0 0.0 0.0 0.0 0.0 0.0 0.0 0.0 0.0 0.0 0.0 0.0 0.0
2.1 1.2 1.5 0.9 0.2 0.0 0.0 0.0 0.0 0.8 3.0 4.4 4.6 0.8 0.0 0.0 0.0 0.1 1.2 1.4 1.8 0.0 0.1 0.1 0.0 0.0 0.0 0.0 0.0 0.0 0.0 0.0 0.0 0.0 0.0 0.0 0.0 0.0
1.5 1.2 0.4 0.2 0.2 0.0 0.0 0.0 0.3 0.3 0.3 0.7 0.3 0.1 0.2 0.0 2.0 2.8 1.6 3.2 2.3 0.0 0.1 0.4 0.0 0.0 0.0 0.0 0.0 0.0 0.0 0.0 0.0 0.0 0.0 0.0 0.0 0.0
0.0 0.1 0.0 0.0 0.0 0.1 0.2 1.6 0.4 0.2 0.0 0.0 0.0 0.1 0.6 0.2 0.5 1.3 2.8 1.8 0.3 0.0 0.1 2.2 0.0 0.1 0.0 0.0 0.0 0.0 0.0 0.0 0.0 0.0 0.0 0.0 0.0 0.0
0.0 0.0 0.1 0.0 0.0 0.0 1.3 1.5 0.2 0.0 0.0 0.0 0.2 0.0 0.0 0.0 0.0 2.1 2.8 3.8 2.4 0.2 0.0 0.5 0.2 0.2 0.1 0.0 0.0 0.0 0.0 0.0 0.0 0.0 0.0 0.0 0.0 0.0
0.0 0.0 0.0 0.0 0.0 0.3 0.2 0.1 0.5 0.0 1.4 0.6 0.0 0.0 0.0 0.0 0.0 0.2 5.2 13.7 6.4 4.8 0.0 5.4 1.9 1.3 6.3 1.5 1.5 1.0 0.0 0.0 0.0 0.0 0.0 0.0 0.0 0.1
0.5 0.0 0.0 0.1 0.5 0.1 0.0 0.0 0.1 0.2 0.1 0.1 0.0 0.0 0.0 0.0 0.1 0.3 2.0 10.3 15.7 9.9 0.1 9.8 12.6 1.4 9.7 5.2 3.5 3.3 2.2 0.1 0.2 0.0 0.0 0.1 0.1 0.2
0.1 0.0 0.3 0.6 0.0 0.0 0.0 0.1 0.2 0.1 0.0 0.1 0.2 0.2 0.2 0.3 0.2 0.2 0.3 1.9 3.8 9.8 3.0 4.7 22.3 10.6 15.3 10.3 5.1 5.8 2.8 3.1 2.4 1.4 0.6 0.4 0.3 0.3
0.0 0.5 0.4 0.0 0.0 0.0 0.0 0.0 0.0 0.0 0.9 2.3 1.4 0.6 0.7 1.3 2.0 2.8 4.7 4.9 6.0 7.2 8.2 7.4 12.5 11.9 14.2 13.8 9.8 6.0 7.9 6.2 4.2 6.2 3.8 2.0 2.1 1.2
0.9 0.6 0.0 0.0 0.0 0.0 0.0 0.0 0.0 0.3 2.5 4.8 4.0 2.7 3.5 5.2 6.2 7.4 11.8 10.3 11.9 9.7 7.7 7.0 8.8 10.6 11.7 6.2 10.4 8.9 6.6 12.8 9.0 8.0 7.5 3.4 1.3 0.6
0.3 0.0 0.0 0.0 0.0 0.0 0.0 0.0 0.0 0.3 2.6 2.7 4.3 4.5 4.5 7.2 8.2 9.6 13.5 13.2 13.4 9.8 7.8 6.9 6.2 4.5 4.8 6.7 8.7 6.8 8.9 8.4 8.9 12.0 9.7 5.9 4.5 1.2
0.0 0.0 0.0 0.1 0.2 0.1 0.5 0.8 0.9 1.3 3.5 5.8 6.6 7.2 10.0 11.7 14.3 15.4 15.2 15.1 14.4 10.2 11.3 8.4 8.4 8.4 7.7 5.9 6.5 11.6 9.0 9.7 10.3 10.8 9.5 6.9 6.0 3.0
0.0 0.2 0.2 0.4 0.5 0.7 1.3 2.8 4.0 3.8 6.9 9.5 10.9 11.5 13.4 15.4 16.3 15.8 13.8 12.3 10.7 9.0 7.0 6.7 9.9 13.0 15.4 9.3 6.7 5.4 14.3 11.1 7.3 7.6 6.7 4.5 5.7 3.8
0.2 1.5 0.6 0.7 1.3 2.6 3.6 6.1 8.1 8.0 7.4 9.6 11.9 15.2 17.5 21.2 19.7 16.9 12.9 11.6 10.7 7.9 7.3 5.9 6.0 10.4 18.5 17.7 15.2 11.4 5.9 10.7 9.0 8.1 5.4 3.5 2.9 0.0
0.4 1.8 1.9 1.4 2.9 3.8 4.4 7.4 9.4 13.1 15.8 17.6 15.9 18.6 18.6 21.7 16.9 10.4 9.1 4.8 6.7 8.9 9.6 6.0 5.4 4.0 7.3 7.5 10.2 7.3 8.1 3.9 2.5 10.5 8.2 7.0 4.1 2.6
0.9 1.5 1.7 2.6 3.0 4.5 6.9 10.3 14.7 16.0 18.4 15.7 18.7 19.4 17.2 15.7 13.9 9.8 7.5 9.4 6.9 6.5 7.2 6.7 7.1 8.5 7.0 8.7 9.0 6.4 6.1 4.3 1.8 1.2 0.7 3.7 11.6 17.0
1.8 1.3 2.0 3.2 3.4 5.2 8.2 14.0 17.2 18.5 18.3 20.3 18.7 16.7 14.3 12.4 6.2 6.8 7.4 7.3 8.7 10.2 8.6 9.4 8.8 7.2 6.0 6.9 7.6 6.9 4.2 3.6 2.0 2.2 4.7 0.6 0.8 1.5

GFSNE_prec_kuchsnow_150.txt.gz
Snowfall_Accumulation
0.0 0.0 0.0 0.0 0.0 0.0 0.0 0.0 0.0 0.0 0.0 0.0 0.0 0.0 0.0 0.0 0.0 0.0 0.0 0.0 0.0 0.0 0.0 0.0 0.0 0.0 0.0 0.0 0.0 0.0 0.0 0.0 0.0 0.0 0.0 0.0 0.0 0.0
0.0 0.0 0.0 0.0 0.0 0.0 0.0 0.0 0.0 0.0 0.0 0.0 0.1 0.0 0.0 0.0 0.0 0.0 0.0 0.0 0.0 0.0 0.0 0.0 0.0 0.0 0.0 0.0 0.0 0.0 0.0 0.0 0.0 0.0 0.0 0.0 0.0 0.0
0.0 0.0 0.0 0.0 0.0 0.0 0.0 0.1 0.1 0.0 0.0 1.3 0.7 0.0 0.0 0.0 0.0 0.0 0.0 0.0 0.0 0.0 0.0 0.0 0.0 0.0 0.0 0.0 0.0 0.0 0.0 0.0 0.0 0.0 0.0 0.0 0.0 0.0
0.0 0.0 0.0 0.0 0.0 0.5 0.0 0.2 0.1 1.1 0.9 0.4 0.0 0.0 0.0 0.0 0.0 0.0 0.0 0.0 0.0 0.0 0.0 0.0 0.0 0.0 0.0 0.0 0.0 0.0 0.0 0.0 0.0 0.0 0.0 0.0 0.0 0.0
0.0 0.0 0.0 0.0 0.0 0.4 0.2 0.1 0.6 0.1 0.1 0.2 0.0 0.0 0.0 0.0 0.0 0.0 0.0 0.0 0.0 0.0 0.0 0.0 0.0 0.0 0.0 0.0 0.0 0.0 0.0 0.0 0.0 0.0 0.0 0.0 0.0 0.0
0.0 0.0 0.4 1.0 0.0 0.5 0.6 0.3 0.1 0.1 0.1 0.1 0.0 1.1 0.2 0.1 0.2 0.1 0.0 0.0 0.0 0.0 0.0 0.0 0.0 0.0 0.0 0.0 0.0 0.0 0.0 0.0 0.0 0.0 0.0 0.0 0.0 0.0
1.0 1.1 1.0 0.5 0.0 0.0 0.0 0.0 0.1 0.1 1.3 3.4 2.3 1.3 1.4 0.0 0.0 0.0 0.0 0.0 0.1 0.0 0.0 0.0 0.0 0.0 0.0 0.0 0.0 0.0 0.0 0.0 0.0 0.0 0.0 0.0 0.0 0.0
2.1 1.2 1.5 0.9 0.2 0.0 0.0 0.0 0.0 0.8 3.0 4.4 4.6 0.8 0.0 0.0 0.0 0.1 1.2 1.4 1.8 0.0 0.1 0.1 0.0 0.0 0.0 0.0 0.0 0.0 0.0 0.0 0.0 0.0 0.0 0.0 0.0 0.0
1.5 1.2 0.4 0.2 0.2 0.0 0.0 0.0 0.3 0.3 0.3 0.7 0.3 0.1 0.2 0.0 2.0 2.8 1.6 3.2 2.3 0.0 0.1 0.4 0.0 0.0 0.0 0.0 0.0 0.0 0.0 0.0 0.0 0.0 0.0 0.0 0.0 0.0
0.0 0.1 0.0 0.0 0.0 0.1 0.2 1.6 0.4 0.2 0.0 0.0 0.0 0.1 0.6 0.2 0.5 1.3 2.8 1.8 0.3 0.0 0.1 2.2 0.0 0.1 0.0 0.0 0.0 0.0 0.0 0.0 0.0 0.0 0.0 0.0 0.0 0.0
0.0 0.0 0.1 0.0 0.0 0.0 1.3 1.5 0.2 0.0 0.0 0.0 0.2 0.0 0.0 0.0 0.0 2.1 2.8 3.8 2.4 0.2 0.0 0.5 0.2 0.2 0.1 0.0 0.0 0.0 0.0 0.0 0.0 0.0 0.0 0.0 0.0 0.0
0.0 0.0 0.0 0.0 0.0 0.3 0.2 0.1 0.5 0.0 1.4 0.6 0.0 0.0 0.0 0.0 0.0 0.2 5.2 13.7 6.4 4.8 0.0 5.4 1.9 1.3 6.3 1.5 1.5 1.0 0.0 0.0 0.0 0.0 0.0 0.0 0.0 0.1
0.5 0.0 0.0 0.1 0.5 0.1 0.0 0.0 0.1 0.2 0.1 0.1 0.0 0.0 0.0 0.0 0.1 0.3 2.0 10.3 15.7 9.9 0.1 9.8 12.6 1.4 9.7 5.2 3.5 3.3 2.2 0.1 0.2 0.0 0.0 0.1 0.1 0.2
0.1 0.0 0.3 0.6 0.0 0.0 0.0 0.1 0.2 0.1 0.0 0.1 0.2 0.2 0.2 0.3 0.2 0.2 0.3 1.9 3.8 9.8 3.0 4.7 22.3 10.6 15.3 10.3 5.1 5.8 2.8 3.1 2.4 1.4 0.6 0.4 0.3 0.3
0.0 0.5 0.4 0.0 0.0 0.0 0.0 0.0 0.0 0.0 0.9 2.3 1.4 0.6 0.7 1.3 2.0 2.8 4.7 4.9 6.0 7.2 8.2 7.4 12.5 11.9 14.2 13.8 9.8 6.0 7.9 6.2 4.2 6.2 3.8 2.0 2.1 1.2
0.9 0.6 0.0 0.0 0.0 0.0 0.0 0.0 0.0 0.3 2.5 4.8 4.0 2.7 3.5 5.2 6.2 7.4 11.8 10.3 11.9 9.7 7.7 7.0 8.8 10.6 11.7 6.2 10.4 8.9 6.6 12.8 9.0 8.0 7.5 3.4 1.3 0.6
0.3 0.0 0.0 0.0 0.0 0.0 0.0 0.0 0.0 0.3 2.6 2.7 4.3 4.5 4.5 7.2 8.2 9.6 13.5 13.2 13.4 9.8 7.8 6.9 6.2 4.5 4.8 6.7 9.9 6.8 9.6 8.4 8.9 12.0 9.7 5.9 4.5 1.2
0.0 0.0 0.0 0.1 0.2 0.1 0.5 0.8 0.9 1.3 3.5 5.8 6.6 7.2 10.0 11.7 14.3 15.4 15.2 15.1 14.4 10.2 11.3 8.4 8.4 8.4 8.8 5.9 7.6 12.8 10.4 10.9 11.7 12.2 9.5 6.9 6.0 3.0
0.0 0.2 0.2 0.4 0.5 0.7 1.3 2.8 4.0 3.8 6.9 9.5 10.9 11.5 13.4 15.4 16.3 15.8 13.8 12.3 10.8 9.1 7.1 6.8 10.1 13.0 16.5 10.7 8.3 6.8 16.4 13.5 10.0 10.7 9.4 6.6 7.0 4.6
0.2 1.5 0.6 0.7 1.3 2.6 3.6 6.1 8.1 8.0 7.4 9.6 11.9 15.2 17.5 21.2 19.7 17.0 13.0 11.7 10.9 8.0 7.5 5.9 6.3 10.4 19.6 18.8 17.1 14.3 8.1 13.7 12.0 11.7 8.9 5.7 4.4 0.0
0.4 1.8 1.9 1.4 2.9 3.8 4.4 7.4 9.4 13.1 15.9 17.6 15.9 18.6 18.6 21.8 17.0 10.5 9.2 5.0 6.9 9.1 9.9 6.1 5.5 4.0 8.8 9.4 13.1 11.6 12.5 6.7 5.1 13.3 10.6 8.9 5.5 3.5
0.9 1.5 1.7 2.6 3.0 4.5 6.9 10.3 14.7 16.0 18.4 15.7 18.7 19.4 17.2 15.8 14.0 9.9 7.7 9.5 7.1 6.7 7.5 6.7 7.7 9.5 8.3 10.2 11.2 9.6 9.9 7.7 4.0 2.7 1.8 4.5 12.2 17.5
1.8 1.3 2.0 3.2 3.4 5.2 8.2 14.0 17.2 18.6 18.3 20.3 18.7 16.8 14.3 12.5 6.3 6.9 7.5 7.5 8.8 10.5 9.0 9.9 9.8 8.4 7.5 8.8 9.9 10.5 8.3 7.7 5.3 4.4 5.7 0.8 0.9 1.6

GFSNE_prec_kuchsnow_153.txt.gz
Snowfall_Accumulation
0.0 0.0 0.0 0.0 0.0 0.0 0.0 0.0 0.0 0.0 0.0 0.0 0.0 0.0 0.0 0.0 0.0 0.0 0.0 0.0 0.0 0.0 0.0 0.0 0.0 0.0 0.0 0.0 0.0 0.0 0.0 0.0 0.0 0.0 0.0 0.0 0.0 0.0
0.0 0.0 0.0 0.0 0.0 0.0 0.0 0.0 0.0 0.0 0.0 0.0 0.1 0.0 0.0 0.0 0.0 0.0 0.0 0.0 0.0 0.0 0.0 0.0 0.0 0.0 0.0 0.0 0.0 0.0 0.0 0.0 0.0 0.0 0.0 0.0 0.0 0.0
0.0 0.0 0.0 0.0 0.0 0.0 0.0 0.1 0.1 0.0 0.0 1.3 0.7 0.0 0.0 0.0 0.0 0.0 0.0 0.0 0.0 0.0 0.0 0.0 0.0 0.0 0.0 0.0 0.0 0.0 0.0 0.0 0.0 0.0 0.0 0.0 0.0 0.0
0.0 0.0 0.0 0.0 0.0 0.5 0.0 0.2 0.1 1.1 0.9 0.4 0.0 0.0 0.0 0.0 0.0 0.0 0.0 0.0 0.0 0.0 0.0 0.0 0.0 0.0 0.0 0.0 0.0 0.0 0.0 0.0 0.0 0.0 0.0 0.0 0.0 0.0
0.0 0.0 0.0 0.0 0.0 0.4 0.2 0.1 0.6 0.1 0.1 0.2 0.0 0.0 0.0 0.0 0.0 0.0 0.0 0.0 0.0 0.0 0.0 0.0 0.0 0.0 0.0 0.0 0.0 0.0 0.0 0.0 0.0 0.0 0.0 0.0 0.0 0.0
0.0 0.0 0.4 1.0 0.0 0.5 0.6 0.3 0.1 0.1 0.1 0.1 0.0 1.1 0.2 0.1 0.2 0.1 0.0 0.0 0.0 0.0 0.0 0.0 0.0 0.0 0.0 0.0 0.0 0.0 0.0 0.0 0.0 0.0 0.0 0.0 0.0 0.0
1.0 1.1 1.0 0.5 0.0 0.0 0.0 0.0 0.1 0.1 1.3 3.4 2.3 1.3 1.4 0.0 0.0 0.0 0.0 0.0 0.1 0.0 0.0 0.0 0.0 0.0 0.0 0.0 0.0 0.0 0.0 0.0 0.0 0.0 0.0 0.0 0.0 0.0
2.1 1.2 1.5 0.9 0.2 0.0 0.0 0.0 0.0 0.8 3.0 4.4 4.6 0.8 0.0 0.0 0.0 0.1 1.2 1.4 1.8 0.0 0.1 0.1 0.0 0.0 0.0 0.0 0.0 0.0 0.0 0.0 0.0 0.0 0.0 0.0 0.0 0.0
1.5 1.2 0.4 0.2 0.2 0.0 0.0 0.0 0.3 0.3 0.3 0.7 0.3 0.1 0.2 0.0 2.0 2.8 1.6 3.2 2.3 0.0 0.1 0.4 0.0 0.0 0.0 0.0 0.0 0.0 0.0 0.0 0.0 0.0 0.0 0.0 0.0 0.0
0.0 0.1 0.0 0.0 0.0 0.1 0.2 1.6 0.4 0.2 0.0 0.0 0.0 0.1 0.6 0.2 0.5 1.3 2.8 1.8 0.3 0.0 0.1 2.2 0.0 0.1 0.0 0.0 0.0 0.0 0.0 0.0 0.0 0.0 0.0 0.0 0.0 0.0
0.0 0.0 0.1 0.0 0.0 0.0 1.3 1.5 0.2 0.0 0.0 0.0 0.2 0.0 0.0 0.0 0.0 2.1 2.8 3.8 2.4 0.2 0.0 0.5 0.2 0.2 0.1 0.0 0.0 0.0 0.0 0.0 0.0 0.0 0.0 0.0 0.0 0.0
0.0 0.0 0.0 0.0 0.0 0.3 0.2 0.1 0.5 0.0 1.4 0.6 0.0 0.0 0.0 0.0 0.0 0.2 5.2 13.7 6.4 4.8 0.0 5.4 1.9 1.3 6.3 1.5 1.5 1.0 0.0 0.0 0.0 0.0 0.0 0.0 0.0 0.1
0.5 0.0 0.0 0.1 0.5 0.1 0.0 0.0 0.1 0.2 0.1 0.1 0.0 0.0 0.0 0.0 0.1 0.3 2.0 10.3 15.7 9.9 0.1 9.8 12.6 1.4 9.7 5.2 3.5 3.3 2.2 0.1 0.2 0.0 0.0 0.1 0.1 0.2
0.1 0.0 0.3 0.6 0.0 0.0 0.0 0.1 0.2 0.1 0.0 0.1 0.2 0.2 0.2 0.3 0.2 0.2 0.3 1.9 3.8 9.8 3.0 4.7 22.3 10.6 15.3 10.3 5.1 5.8 2.8 3.1 2.4 1.4 0.6 0.4 0.3 0.3
0.0 0.5 0.4 0.0 0.0 0.0 0.0 0.0 0.0 0.0 0.9 2.3 1.4 0.6 0.7 1.3 2.0 2.8 4.7 4.9 6.0 7.2 8.2 7.4 12.5 11.9 14.2 13.8 9.8 6.0 7.9 6.2 4.2 6.2 3.8 2.0 2.1 1.2
0.9 0.6 0.0 0.0 0.0 0.0 0.0 0.0 0.0 0.3 2.5 4.8 4.0 2.7 3.5 5.2 6.2 7.4 11.8 10.3 11.9 9.7 7.7 7.0 8.8 10.6 11.7 6.2 10.4 8.9 6.6 12.8 9.0 8.0 7.5 3.4 1.3 0.6
0.3 0.0 0.0 0.0 0.0 0.0 0.0 0.0 0.0 0.3 2.6 2.7 4.3 4.5 4.5 7.2 8.2 9.6 13.5 13.2 13.4 9.8 7.8 6.9 6.2 4.5 4.8 6.7 9.9 6.8 9.6 8.4 8.9 12.0 9.7 5.9 4.5 1.2
0.0 0.0 0.0 0.1 0.2 0.1 0.5 0.8 0.9 1.3 3.5 5.8 6.6 7.2 10.0 11.7 14.3 15.4 15.2 15.1 14.4 10.2 11.3 8.4 8.4 8.4 8.8 5.9 7.6 12.8 10.4 10.9 11.7 12.2 9.5 6.9 6.0 3.0
0.0 0.2 0.2 0.4 0.5 0.7 1.3 2.8 4.0 3.8 6.9 9.5 10.9 11.5 13.4 15.4 16.3 15.8 13.8 12.3 10.8 9.1 7.1 6.8 10.1 13.1 16.7 10.8 8.3 6.8 16.4 13.5 10.0 10.7 9.9 6.6 7.0 4.6
0.2 1.5 0.6 0.7 1.3 2.6 3.6 6.1 8.1 8.0 7.4 9.6 11.9 15.2 17.5 21.2 19.7 17.0 13.0 11.7 10.9 8.0 7.5 5.9 6.3 10.4 19.9 19.1 17.6 14.3 8.1 13.7 12.0 12.8 10.4 7.9 6.2 0.0
0.4 1.8 1.9 1.4 2.9 3.8 4.4 7.4 9.4 13.1 15.9 17.6 15.9 18.6 18.6 21.8 17.0 10.5 9.2 5.0 7.0 9.1 10.1 6.1 5.5 4.1 9.0 10.0 13.8 11.6 12.5 6.7 6.5 15.3 13.0 11.9 9.5 7.7
0.9 1.5 1.7 2.6 3.0 4.5 6.9 10.3 14.7 16.0 18.4 15.7 18.7 19.4 17.2 15.9 14.2 10.1 7.8 9.7 7.2 6.8 7.6 6.7 7.7 9.5 8.7 10.7 11.8 10.2 10.6 8.7 5.3 4.3 3.8 7.2 16.0 21.1
1.8 1.3 2.1 3.2 3.4 5.2 8.2 14.0 17.2 18.6 18.3 20.3 18.7 16.8 14.4 12.6 6.4 7.0 7.6 7.5 8.9 10.6 9.0 10.0 9.8 8.4 7.5 9.2 10.3 10.5 8.3 9.3 7.3 6.2 7.6 2.1 2.3 3.1